N1BFO Weather Reports


Display with metric or nautical units.
time (UTC)temp
F
wind
direction
speed
MPH
gust
MPH
rain 1hr
in
rain 24hr
in
rain mn
in
humidity
%
barometer
mb
20260507065525 51 0 0.0 0.0 0.00 0.20 0.01 92 1006.1
20260507065028 51 0 0.0 0.0 0.00 0.20 0.01 92 1006.0
20260507064601 51 0 0.0 1.0 0.00 0.20 0.01 92 1006.0
20260507064027 51 0 0.0 1.0 0.00 0.20 0.01 91 1005.9
20260507063527 51 0 0.0 2.0 0.00 0.20 0.01 91 1006.2
20260507063037 51 0 0.0 2.0 0.00 0.20 0.01 91 1006.1
20260507062530 51 0 0.0 1.0 0.00 0.20 0.01 91 1006.2
20260507062026 51 0 0.0 1.0 0.00 0.20 0.01 91 1006.2
20260507061540 51 0 0.0 4.0 0.00 0.20 0.01 91 1006.1
20260507061024 51 0 0.0 4.0 0.00 0.20 0.01 90 1006.0
20260507060524 51 0 1.0 4.0 0.00 0.20 0.01 90 1006.1
20260507060051 52 0 0.0 5.0 0.00 0.20 0.01 90 1006.2
20260507055526 52 346 1.0 5.0 0.00 0.20 0.01 90 1006.1
20260507055028 52 82 0.0 3.0 0.00 0.20 0.01 91 1006.2
20260507054536 52 17 1.0 3.0 0.00 0.20 0.01 91 1006.3
20260507054024 52 325 1.0 5.0 0.00 0.20 0.01 92 1006.4
20260507053524 53 343 1.0 5.0 0.00 0.20 0.01 92 1006.8
20260507053044 53 360 1.0 4.0 0.00 0.20 0.01 92 1006.5
20260507052527 53 334 0.0 3.0 0.00 0.20 0.01 93 1006.5
20260507052025 54 0 0.0 2.0 0.00 0.20 0.01 93 1006.5
20260507051553 54 8 0.0 2.0 0.00 0.20 0.01 93 1006.6
20260507051026 54 290 0.0 2.0 0.00 0.20 0.01 93 1006.6
20260507050527 54 0 0.0 2.0 0.00 0.20 0.01 93 1006.6
20260507050044 54 0 0.0 4.0 0.01 0.20 0.01 93 1006.5
20260507045524 54 7 1.0 4.0 0.02 0.20 0.01 93 1006.4
20260507045026 54 82 0.0 5.0 0.02 0.20 0.01 93 1006.5
20260507044539 54 15 1.0 5.0 0.02 0.20 0.01 93 1006.6
20260507044023 54 0 1.0 2.0 0.02 0.20 0.01 93 1006.6
20260507043526 54 25 0.0 3.0 0.02 0.20 0.01 92 1006.5
20260507043041 55 16 0.0 6.0 0.02 0.20 0.01 93 1006.3
20260507042523 55 0 0.0 6.0 0.02 0.20 0.01 92 1006.4
20260507042024 55 14 1.0 4.0 0.02 0.20 0.01 92 1006.3
20260507041537 56 51 1.0 5.0 0.02 0.20 0.01 92 1006.4
20260507041027 56 359 1.0 5.0 0.02 0.20 0.01 92 1006.2
20260507040525 57 356 1.0 5.0 0.02 0.20 0.01 92 1006.4
20260507040042 57 300 0.0 3.0 0.01 0.19 0.00 93 1006.4
20260507035526 58 333 0.0 5.0 0.00 0.18 0.18 93 1006.4
20260507035025 58 0 1.0 5.0 0.00 0.18 0.18 93 1006.4
20260507034538 58 288 2.0 5.0 0.00 0.18 0.18 94 1006.2
20260507034024 58 68 0.0 2.0 0.01 0.18 0.18 94 1006.1
20260507033528 58 11 0.0 2.0 0.01 0.18 0.18 94 1005.9
20260507033038 58 0 0.0 2.0 0.01 0.18 0.18 94 1005.8
20260507032526 58 0 0.0 2.0 0.01 0.18 0.18 94 1005.9
20260507032024 58 0 0.0 2.0 0.01 0.18 0.18 94 1006.0
20260507031538 58 43 0.0 2.0 0.01 0.18 0.18 95 1005.6
20260507031023 58 217 0.0 2.0 0.01 0.18 0.18 95 1005.6
20260507030527 58 184 0.0 2.0 0.01 0.18 0.18 95 1005.3
20260507030042 58 193 1.0 2.0 0.01 0.18 0.18 95 1005.3
20260507025528 58 247 0.0 3.0 0.01 0.18 0.18 95 1005.3
20260507025027 58 240 0.0 3.0 0.01 0.18 0.18 95 1005.3
20260507024542 58 0 0.0 3.0 0.01 0.18 0.18 95 1005.4
20260507024026 58 143 0.0 3.0 0.00 0.17 0.17 94 1005.3
20260507023526 58 259 0.0 3.0 0.00 0.17 0.17 94 1005.4
20260507023042 58 140 0.0 2.0 0.00 0.17 0.17 94 1005.3
20260507022527 58 122 0.0 3.0 0.00 0.17 0.17 94 1005.3
20260507022029 58 0 0.0 3.0 0.00 0.17 0.17 94 1005.3
20260507021541 58 0 0.0 4.0 0.00 0.17 0.17 94 1005.2
20260507021028 58 0 1.0 4.0 0.00 0.17 0.17 94 1005.1
20260507020525 58 136 0.0 3.0 0.00 0.17 0.17 94 1005.0
20260507020044 58 0 1.0 3.0 0.00 0.17 0.17 94 1005.0
20260507015528 58 129 0.0 3.0 0.00 0.17 0.17 94 1005.2
20260507015029 58 0 0.0 4.0 0.00 0.17 0.17 94 1005.2
20260507014547 58 0 0.0 4.0 0.00 0.17 0.17 94 1005.2
20260507014026 58 94 1.0 4.0 0.00 0.17 0.17 94 1005.2
20260507013524 58 252 0.0 3.0 0.00 0.17 0.17 94 1005.2
20260507013041 58 93 0.0 4.0 0.00 0.17 0.17 94 1005.2
20260507012525 58 0 1.0 4.0 0.00 0.17 0.17 95 1005.1
20260507012029 58 214 0.0 4.0 0.00 0.17 0.17 95 1005.2
20260507011541 58 265 1.0 4.0 0.00 0.17 0.17 95 1005.2
20260507011025 58 288 0.0 4.0 0.00 0.17 0.17 95 1005.2
20260507010527 58 179 0.0 4.0 0.00 0.17 0.17 95 1005.2
20260507010051 58 28 0.0 9.0 0.00 0.17 0.17 95 1005.2
20260507005528 58 252 0.0 9.0 0.00 0.17 0.17 95 1005.3
20260507005032 58 103 1.0 7.0 0.00 0.17 0.17 95 1005.3
20260507004537 58 181 1.0 5.0 0.00 0.17 0.17 95 1005.3
20260507004026 58 201 0.0 2.0 0.00 0.17 0.17 95 1005.3
20260507003528 58 0 0.0 4.0 0.00 0.17 0.17 95 1005.2
20260507003039 58 292 0.0 4.0 0.00 0.17 0.17 95 1005.2
20260507002525 58 274 1.0 4.0 0.00 0.17 0.17 95 1005.2
20260507002033 58 115 0.0 2.0 0.00 0.17 0.17 95 1005.2
20260507001537 58 163 0.0 3.0 0.00 0.17 0.17 94 1005.2
20260507001024 58 262 0.0 6.0 0.00 0.17 0.17 94 1005.1
20260507000525 58 212 1.0 7.0 0.01 0.17 0.17 94 1005.2
20260507000042 58 0 1.0 7.0 0.02 0.17 0.17 94 1005.1
20260506235527 58 0 0.0 4.0 0.04 0.17 0.17 94 1005.0
20260506235029 58 0 1.0 4.0 0.05 0.17 0.17 94 1005.0
20260506234534 58 41 0.0 2.0 0.05 0.17 0.17 94 1005.0
20260506234026 59 148 0.0 2.0 0.05 0.17 0.17 94 1005.0
20260506233528 59 0 0.0 2.0 0.05 0.17 0.17 94 1005.1
20260506233037 59 254 0.0 1.0 0.06 0.17 0.17 94 1005.0
20260506232526 59 281 0.0 2.0 0.06 0.17 0.17 94 1005.0
20260506232028 59 274 0.0 5.0 0.06 0.17 0.17 94 1005.0
20260506231551 59 98 0.0 5.0 0.06 0.17 0.17 93 1004.9
20260506231028 59 0 0.0 6.0 0.06 0.17 0.17 93 1005.0
20260506230526 59 128 1.0 6.0 0.05 0.16 0.16 93 1005.1
20260506230052 59 162 1.0 6.0 0.03 0.14 0.14 93 1005.0
20260506225526 59 0 0.0 2.0 0.03 0.13 0.13 93 1005.2
20260506225025 59 0 0.0 4.0 0.02 0.12 0.12 93 1005.1
20260506224543 59 147 1.0 6.0 0.02 0.12 0.12 93 1005.2
20260506224029 59 141 0.0 6.0 0.02 0.12 0.12 92 1005.2
20260506223524 59 278 1.0 6.0 0.02 0.12 0.12 92 1005.1
20260506223045 59 0 1.0 4.0 0.01 0.11 0.11 92 1005.1
20260506222525 59 279 0.0 2.0 0.01 0.11 0.11 92 1005.2
20260506222028 60 198 0.0 4.0 0.01 0.11 0.11 92 1005.2
20260506221558 60 143 0.0 4.0 0.01 0.11 0.11 92 1005.3
20260506221028 60 209 0.0 3.0 0.01 0.11 0.11 92 1005.3
20260506220526 60 177 1.0 6.0 0.01 0.11 0.11 92 1005.4
20260506220050 60 168 1.0 6.0 0.01 0.11 0.11 92 1005.4
20260506215531 60 193 1.0 3.0 0.00 0.10 0.10 92 1005.5
20260506215027 60 267 0.0 4.0 0.00 0.10 0.10 91 1005.4
20260506214540 60 0 0.0 4.0 0.01 0.10 0.10 91 1005.4
20260506214024 60 191 1.0 4.0 0.01 0.10 0.10 91 1005.5
20260506213525 60 169 1.0 4.0 0.01 0.10 0.10 91 1005.6
20260506213039 60 214 1.0 4.0 0.01 0.10 0.10 91 1005.6
20260506212528 60 232 1.0 4.0 0.02 0.10 0.10 91 1005.7
20260506212025 60 163 1.0 5.0 0.02 0.10 0.10 91 1005.7
20260506211541 60 120 1.0 5.0 0.03 0.10 0.10 91 1005.9
20260506211028 60 177 1.0 4.0 0.03 0.10 0.10 91 1006.0
20260506210527 60 214 1.0 8.0 0.03 0.10 0.10 90 1005.9
20260506210052 60 0 1.0 8.0 0.04 0.10 0.10 91 1005.9
20260506205529 60 0 1.0 9.0 0.04 0.10 0.10 90 1006.0
20260506205027 60 202 1.0 9.0 0.04 0.10 0.10 90 1006.1
20260506204541 60 84 1.0 2.0 0.03 0.09 0.09 90 1006.1
20260506204027 60 236 0.0 5.0 0.03 0.09 0.09 90 1006.1
20260506203526 60 271 1.0 5.0 0.03 0.09 0.09 90 1006.1
20260506203039 60 283 0.0 4.0 0.04 0.09 0.09 90 1006.2
20260506202528 60 278 1.0 5.0 0.03 0.08 0.08 89 1006.2
20260506202030 61 273 1.0 9.0 0.04 0.08 0.08 89 1006.2
20260506201542 61 146 1.0 9.0 0.03 0.07 0.07 88 1006.1
20260506201028 61 200 1.0 8.0 0.03 0.07 0.07 88 1006.0
20260506200527 61 0 1.0 8.0 0.04 0.07 0.07 88 1006.1
20260506200037 62 270 0.0 7.0 0.03 0.06 0.06 88 1006.1
20260506195528 62 276 0.0 7.0 0.04 0.06 0.06 88 1006.1
20260506195027 62 202 0.0 4.0 0.05 0.06 0.06 88 1006.2
20260506194540 62 0 1.0 4.0 0.06 0.06 0.06 87 1006.2
20260506194031 62 151 0.0 10.0 0.06 0.06 0.06 88 1006.1
20260506193525 63 0 2.0 10.0 0.06 0.06 0.06 87 1006.2
20260506193038 63 288 1.0 2.0 0.05 0.05 0.05 87 1006.2
20260506192527 63 0 0.0 4.0 0.05 0.05 0.05 86 1006.1
20260506192030 63 0 0.0 4.0 0.04 0.04 0.04 85 1006.1
20260506191538 63 284 0.0 6.0 0.04 0.04 0.04 84 1006.1
20260506191027 64 272 0.0 14.0 0.04 0.04 0.04 82 1006.1
20260506190528 64 131 1.0 14.0 0.03 0.03 0.03 81 1006.2
20260506190036 65 288 1.0 5.0 0.03 0.03 0.03 79 1006.3
20260506185529 66 213 0.0 3.0 0.02 0.02 0.02 78 1006.3
20260506185029 66 119 0.0 7.0 0.01 0.01 0.01 75 1006.2
20260506184556 67 265 1.0 9.0 0.00 0.00 0.00 73 1006.4
20260506184028 67 262 3.0 9.0 0.00 0.00 0.00 71 1006.5
20260506183528 67 262 2.0 9.0 0.00 0.00 0.00 70 1006.4
20260506183039 68 224 3.0 9.0 0.00 0.00 0.00 68 1006.4
20260506182527 69 231 2.0 15.0 0.00 0.00 0.00 68 1006.4
20260506182030 69 181 3.0 15.0 0.00 0.00 0.00 65 1006.4
20260506181540 70 184 2.0 15.0 0.00 0.00 0.00 62 1006.4
20260506181030 71 167 3.0 14.0 0.00 0.00 0.00 60 1006.4
20260506180527 71 266 2.0 14.0 0.00 0.00 0.00 59 1006.4
20260506180047 71 221 3.0 14.0 0.00 0.00 0.00 57 1006.4
20260506175527 72 219 1.0 9.0 0.00 0.00 0.00 57 1006.5
20260506175028 72 200 3.0 9.0 0.00 0.00 0.00 57 1006.5
20260506174537 72 175 2.0 8.0 0.00 0.00 0.00 56 1006.4
20260506174026 73 152 2.0 13.0 0.00 0.00 0.00 55 1006.4
20260506173525 73 255 3.0 13.0 0.00 0.00 0.00 55 1006.5
20260506173047 73 155 3.0 13.0 0.00 0.00 0.00 55 1006.4
20260506172528 73 123 5.0 13.0 0.00 0.00 0.00 55 1006.5
20260506172030 73 219 3.0 11.0 0.00 0.00 0.00 55 1006.5
20260506171554 74 116 3.0 11.0 0.00 0.00 0.00 54 1006.3
20260506171026 74 104 1.0 7.0 0.00 0.00 0.00 55 1006.4
20260506170530 74 262 2.0 9.0 0.00 0.00 0.00 55 1006.4
20260506170043 74 175 3.0 9.0 0.00 0.00 0.00 56 1006.5
20260506165530 73 126 1.0 7.0 0.00 0.00 0.00 57 1006.6
20260506165028 72 257 2.0 12.0 0.00 0.00 0.00 57 1006.6
20260506164546 72 272 2.0 12.0 0.00 0.00 0.00 58 1006.8
20260506164026 71 258 1.0 12.0 0.00 0.00 0.00 59 1006.9
20260506163527 71 283 2.0 15.0 0.00 0.00 0.00 58 1007.0
20260506163042 71 99 2.0 15.0 0.00 0.00 0.00 59 1007.1
20260506162530 71 202 2.0 5.0 0.00 0.00 0.00 58 1007.1
20260506162026 71 244 1.0 9.0 0.00 0.00 0.00 60 1007.2
20260506161544 71 252 2.0 9.0 0.00 0.00 0.00 59 1007.3
20260506161027 71 245 2.0 11.0 0.00 0.00 0.00 59 1007.4
20260506160531 71 273 2.0 11.0 0.00 0.00 0.00 59 1007.6
20260506160057 71 150 2.0 10.0 0.00 0.00 0.00 59 1007.7
20260506155526 71 295 2.0 6.0 0.00 0.00 0.00 60 1007.6
20260506155027 71 232 1.0 9.0 0.00 0.00 0.00 60 1007.9
20260506154539 71 283 3.0 9.0 0.00 0.00 0.00 60 1007.9
20260506154029 71 283 1.0 9.0 0.00 0.00 0.00 60 1007.9
20260506153528 71 216 2.0 9.0 0.00 0.00 0.00 60 1007.9
20260506153035 71 276 1.0 6.0 0.00 0.00 0.00 59 1008.1
20260506152527 71 190 1.0 6.0 0.00 0.00 0.00 61 1008.3
20260506152027 72 240 2.0 6.0 0.00 0.00 0.00 60 1008.2
20260506151545 72 268 2.0 9.0 0.00 0.00 0.00 61 1008.3
20260506151025 71 161 1.0 9.0 0.00 0.00 0.00 61 1008.3
20260506150525 71 135 1.0 11.0 0.00 0.00 0.00 60 1008.5
20260506150035 71 181 2.0 11.0 0.00 0.00 0.00 62 1008.4
20260506145526 71 265 3.0 11.0 0.00 0.00 0.00 61 1008.5
20260506145027 71 139 1.0 8.0 0.00 0.00 0.00 63 1008.7
20260506144557 71 145 1.0 8.0 0.00 0.00 0.00 63 1008.6
20260506144030 70 282 2.0 9.0 0.00 0.00 0.00 62 1008.5
20260506143531 71 299 1.0 9.0 0.00 0.00 0.00 63 1008.7
20260506143039 71 186 2.0 6.0 0.00 0.00 0.00 62 1008.6
20260506142525 71 140 1.0 5.0 0.00 0.00 0.00 64 1008.5
20260506142024 71 193 2.0 8.0 0.00 0.00 0.00 62 1008.4
20260506141540 70 168 2.0 8.0 0.00 0.00 0.00 64 1008.3
20260506141024 70 174 3.0 8.0 0.00 0.00 0.00 64 1008.3
20260506140526 70 274 2.0 8.0 0.00 0.00 0.00 66 1008.3
20260506140043 70 207 3.0 8.0 0.00 0.00 0.00 64 1008.4
20260506135530 70 248 3.0 7.0 0.00 0.00 0.00 65 1008.4
20260506135024 69 274 1.0 4.0 0.00 0.00 0.00 68 1008.3
20260506134538 69 105 1.0 4.0 0.00 0.00 0.00 68 1008.5
20260506134027 68 292 1.0 5.0 0.00 0.00 0.00 69 1008.6
20260506133523 67 250 1.0 7.0 0.00 0.00 0.00 69 1008.6
20260506133040 67 174 1.0 7.0 0.00 0.00 0.00 70 1008.8
20260506132528 67 270 2.0 7.0 0.00 0.00 0.00 71 1008.9
20260506132023 66 133 1.0 8.0 0.00 0.00 0.00 70 1008.9
20260506131543 66 160 2.0 9.0 0.00 0.00 0.00 71 1009.0
20260506131027 66 168 2.0 9.0 0.00 0.00 0.00 71 1009.0
20260506130524 66 151 1.0 4.0 0.00 0.00 0.00 71 1008.9
20260506130037 66 152 1.0 3.0 0.00 0.00 0.00 73 1008.9
20260506125523 66 197 1.0 8.0 0.00 0.00 0.00 72 1008.9
20260506125026 65 262 2.0 8.0 0.00 0.00 0.00 72 1009.0
20260506124537 65 164 1.0 4.0 0.00 0.00 0.00 73 1009.0
20260506124030 65 203 2.0 5.0 0.00 0.00 0.00 72 1008.9
20260506123526 65 102 0.0 5.0 0.00 0.00 0.00 74 1008.8
20260506123036 65 135 1.0 5.0 0.00 0.00 0.00 74 1009.0
20260506122525 64 281 0.0 5.0 0.00 0.00 0.00 74 1008.9
20260506122026 64 202 1.0 7.0 0.00 0.00 0.00 75 1009.0
20260506121542 64 269 2.0 7.0 0.00 0.00 0.00 74 1009.1
20260506121027 64 223 1.0 9.0 0.00 0.00 0.00 74 1009.0
20260506120527 65 210 1.0 9.0 0.00 0.00 0.00 75 1008.9
20260506120039 64 248 1.0 9.0 0.00 0.00 0.00 76 1008.9
20260506115525 62 197 1.0 6.0 0.00 0.00 0.00 77 1009.0
20260506115023 62 222 1.0 6.0 0.00 0.00 0.00 78 1009.1
20260506114543 62 153 1.0 6.0 0.00 0.00 0.00 78 1009.1
20260506114026 62 167 1.0 5.0 0.00 0.00 0.00 78 1009.2
20260506113525 62 176 1.0 5.0 0.00 0.00 0.00 77 1009.2
20260506113038 62 264 1.0 4.0 0.00 0.00 0.00 77 1009.2
20260506112526 62 253 1.0 3.0 0.00 0.00 0.00 78 1009.5
20260506112026 62 154 1.0 4.0 0.00 0.00 0.00 78 1009.5
20260506111536 62 257 0.0 6.0 0.00 0.00 0.00 77 1009.4
20260506111028 62 263 2.0 6.0 0.00 0.00 0.00 77 1009.2
20260506110528 62 165 1.0 6.0 0.00 0.00 0.00 76 1009.2
20260506110042 62 165 1.0 4.0 0.00 0.00 0.00 77 1009.1
20260506105527 61 179 1.0 4.0 0.00 0.00 0.00 78 1009.2
20260506105027 61 244 0.0 8.0 0.00 0.00 0.00 79 1009.3
20260506104540 60 216 2.0 8.0 0.00 0.00 0.00 80 1009.3
20260506104027 60 217 1.0 4.0 0.00 0.00 0.00 81 1009.3
20260506103525 59 155 0.0 4.0 0.00 0.00 0.00 81 1009.3
20260506103039 59 179 1.0 4.0 0.00 0.00 0.00 81 1009.1
20260506102529 59 83 1.0 3.0 0.00 0.00 0.00 81 1009.1
20260506102026 59 116 1.0 3.0 0.00 0.00 0.00 81 1009.1
20260506101537 59 276 0.0 3.0 0.00 0.00 0.00 81 1009.1
20260506101025 59 215 0.0 2.0 0.00 0.00 0.00 80 1009.1
20260506100526 59 147 0.0 7.0 0.00 0.00 0.00 80 1009.0
20260506100100 59 269 1.0 7.0 0.00 0.00 0.00 80 1009.0
20260506095528 59 188 0.0 3.0 0.00 0.00 0.00 81 1009.0
20260506095028 59 215 0.0 6.0 0.00 0.00 0.00 81 1009.1
20260506094543 59 282 1.0 6.0 0.00 0.00 0.00 81 1009.0
20260506094028 59 209 0.0 4.0 0.00 0.00 0.00 80 1008.9
20260506093527 59 210 1.0 4.0 0.00 0.00 0.00 80 1008.9
20260506093038 59 155 0.0 3.0 0.00 0.00 0.00 80 1008.9
20260506092529 59 281 0.0 4.0 0.00 0.00 0.00 80 1009.0
20260506092026 59 91 1.0 4.0 0.00 0.00 0.00 80 1008.9
20260506091537 59 206 0.0 3.0 0.00 0.00 0.00 80 1009.1
20260506091025 59 179 0.0 2.0 0.00 0.00 0.00 79 1009.0
20260506090527 59 0 0.0 8.0 0.00 0.00 0.00 79 1008.9
20260506090044 59 221 1.0 8.0 0.00 0.00 0.00 79 1009.0
20260506085526 59 124 0.0 5.0 0.00 0.00 0.00 78 1009.1
20260506085028 59 283 1.0 5.0 0.00 0.00 0.00 78 1009.0
20260506084543 59 273 1.0 4.0 0.00 0.00 0.00 78 1009.1
20260506084027 60 155 1.0 10.0 0.00 0.00 0.00 78 1009.1
20260506083528 60 221 0.0 10.0 0.00 0.00 0.00 77 1009.1
20260506083042 60 287 0.0 3.0 0.00 0.00 0.00 77 1009.1
20260506082526 60 0 1.0 8.0 0.00 0.00 0.00 77 1009.1
20260506082026 60 0 0.0 8.0 0.00 0.00 0.00 77 1009.1
20260506081543 60 288 1.0 7.0 0.00 0.00 0.00 77 1009.1
20260506081027 60 252 0.0 3.0 0.00 0.00 0.00 77 1009.1
20260506080526 60 45 0.0 2.0 0.00 0.00 0.00 76 1009.2
20260506073526 61 120 0.0 4.0 0.00 0.00 0.00 74 1009.0
20260506073037 61 257 1.0 4.0 0.00 0.00 0.00 74 1009.0
20260506072523 61 0 0.0 4.0 0.00 0.00 0.00 74 1009.0
20260506072023 61 0 1.0 7.0 0.00 0.00 0.00 74 1009.0
20260506071541 62 214 0.0 7.0 0.00 0.00 0.00 73 1009.0
20260506071024 62 255 1.0 7.0 0.00 0.00 0.00 73 1008.9
20260506070523 62 0 0.0 4.0 0.00 0.00 0.00 72 1008.9